Regional Weather Roundup
Issued by NWS

Home | Current Version | Previous Version | Graphics & Text | Print | Product List | Glossary Off
Versions: 1 2 3 4 5 6 7 8 9 10 11 12 13 14 15 16 17 18 19 20 21 22 23 24 25 26 27 28 29 30 31 32 33 34 35 36 37 38 39 40 41 42 43 44 45 46 47 48 49 50

000
ASUS43 KMKX 181310
RWRWI

WISCONSIN REGIONAL WEATHER ROUNDUP
NATIONAL WEATHER SERVICE MILWAUKEE/SULLIVAN WI
700 AM CST WED JAN 18 2017

NOTE: "FAIR" INDICATES FEW OR NO CLOUDS BELOW 12,000 FEET WITH NO
SIGNIFICANT WEATHER AND/OR OBSTRUCTIONS TO VISIBILITY.

WIZ001-002-006>008-014>016-023>028-181400-
NORTHWEST WISCONSIN

CITY           SKY/WX    TMP DP  RH WIND       PRES   REMARKS
SUPERIOR ARPT  CLOUDY    26  23  91 SW7       29.82S WCI  18
ASHLAND        CLOUDY    31  24  75 SW15      29.81F WCI  20
HAYWARD        CLOUDY    28  23  81 S13       29.86F WCI  17
SIREN          CLOUDY    29  25  84 S13G20    29.86F WCI  19
CUMBERLAND     CLOUDY    27  23  86 S10       29.91R WCI  17
RICE LAKE      CLOUDY    27  26  93 S8        29.94R WCI  19
CHETEK         CLOUDY    27  26  95 S12       29.94F WCI  17
LADYSMITH      CLOUDY    28  28  96 S12       29.94S WCI  18
EAU CLAIRE     CLOUDY    27  25  92 S8        29.96F WCI  19
MENOMONIE      CLOUDY    28  26  94 MISG      29.96F
NEW RICHMOND   CLOUDY    28  26  93 SW9       29.93S WCI  19
OSCEOLA        CLOUDY    28  28 100 S10       29.95S WCI  18
$$

WIZ003>005-009-010-017-018-181400-
NORTH CENTRAL WISCONSIN

CITY           SKY/WX    TMP DP  RH WIND       PRES   REMARKS
MANITOWISH WTR CLOUDY    27  27 100 SW9       29.86S WCI  17
ARBOR VITAE    CLOUDY    29  28  95 SW8       29.88S WCI  21
WOODRUFF       CLOUDY    29  28  95 SW8       29.88S WCI  21
RHINELANDER    CLOUDY    29  28  96 SW14      29.90S WCI  18
EAGLE RIVER    CLOUDY    27  27 100 SW10G16   29.88S WCI  18
LAND O LAKES   CLOUDY    26  25  98 SW7       29.88R WCI  18
PHILLIPS       CLOUDY   N/A N/A N/A SW6       29.90S
TOMAHAWK       CLOUDY    28  27  96 CALM      29.92F
MEDFORD        CLOUDY    28  27  96 SW9       29.94F FOG     WCI  19
MERRILL        CLOUDY    29  29 100 CALM        N/A
$$

WIZ029-030-035-036-043>047-181400-
CENTRAL WISCONSIN

CITY           SKY/WX    TMP DP  RH WIND       PRES   REMARKS
WAUSAU         CLOUDY    29  28  96 SW12      29.96F WCI  19
MOSINEE        FOG       30  30 100 SW13      29.99S VSB 3/4 WCI  20
MARSHFIELD     CLOUDY    29  28  96 SW10      29.97S WCI  20
STEVENS POINT  CLOUDY    30  30 100 SW8       30.01R FOG     WCI  22
WAUPACA        CLOUDY    34  33  96 CALM      30.02R FOG
WAUTOMA        CLOUDY    32  32 100 SW9       30.04R FOG     WCI  24
WISC RAPIDS    CLOUDY    31  31 100 SW9       30.03R WCI  23
CAMP DOUGLAS   CLOUDY    32  30  93 SW9       30.03S WCI  24
$$

WIZ011>013-019>022-031-037>040-048>050-181400-
NORTHEAST WISCONSIN

CITY           SKY/WX    TMP DP  RH WIND       PRES   REMARKS
ANTIGO         CLOUDY    28  28 100 W10       29.94S FOG     WCI  19
SHAWANO        CLOUDY    33  32  96 CALM      29.99R FOG
OCONTO         CLOUDY    32  31  99 SW9       29.98  WCI  24
STURGEON BAY   FOG       31  31 100 SW9       29.98S VSB 1/2 WCI  23
GREEN BAY      CLOUDY    34  34 100 SW8       30.00F FOG     WCI  27
MANITOWOC      CLOUDY    33  32  96 W7        30.03S FOG     WCI  27
APPLETON       FOG       32  32 100 SW14      29.99F VSB 1/2 WCI  22
CLINTONVILLE   CLOUDY    32  32 100 SW9       30.01R FOG     WCI  24
OSHKOSH        CLOUDY    32  31  96 SW10      30.02S FOG     WCI  24
$$

WIZ032>034-041-042-053>061-181400-
SOUTHWEST WISCONSIN

CITY           SKY/WX    TMP DP  RH WIND       PRES   REMARKS
LA CROSSE      CLOUDY    34  29  82 S10       30.05S WCI  26
SPARTA         CLOUDY    31  30  96 SW6       30.05S WCI  25
VIROQUA        CLOUDY    30  30 100 SW10G16   30.04S WCI  21
BOSCOBEL       CLOUDY    33  29  85 SW12G18   30.10R WCI  24
PRAIRIE DU CHI CLOUDY    32  29  89 W6        30.10R WCI  26
PLATTEVILLE    CLOUDY    32  32 100 SW12      30.10R WCI  23
$$

WIZ056-057-062-063-064-067-068-181400-
SOUTH CENTRAL WISCONSIN

CITY           SKY/WX    TMP DP  RH WIND       PRES   REMARKS
REEDSBURG      CLOUDY    32  32 100 SW12      30.06R WCI  23
BARABOO/DELLS  CLOUDY    32  32  99 SW14      30.05R FOG     WCI  22
LONE ROCK      CLOUDY    33  30  88 W13       30.09R WCI  24
MINERAL POINT  CLOUDY    32  32 100 SW8       30.07S FOG     WCI  25
MADISON        CLOUDY    32  31  96 W5        30.08R WCI  27
MIDDLETON      CLOUDY    33  33 100 SW8       30.08R WCI  26
WATERTOWN      CLOUDY    32  32 100 W7        30.07R FOG     WCI  26
MONROE         FOG       32  32 100 SW10      30.08S VSB 1/4 WCI  24
JANESVILLE     CLOUDY    34  34 100 W8        30.09R FOG     WCI  27
$$

WIZ051-052-058>065-066-070>072-181400-
SOUTHEAST WISCONSIN

CITY           SKY/WX    TMP DP  RH WIND       PRES   REMARKS
MILWAUKEE      CLOUDY    36  33  89 W8        30.06R FOG     WCI  30
WAUKESHA       CLOUDY    32  32 100 SW8       30.07R FOG     WCI  25
MILWAUKEE/TIMM CLOUDY    34  32  93 W10G16    30.06S FOG     WCI  26
RACINE         CLOUDY    35  33  92 W8        30.08S FOG     WCI  29
KENOSHA        CLOUDY    35  33  92 W15G21    30.07S FOG     WCI  25
FOND DU LAC    CLOUDY    32  30  92 W7        30.04S FOG     WCI  26
SHEBOYGAN      CLOUDY    33  31  92 W14       30.04R FOG     WCI  23
WEST BEND      CLOUDY    32  32 100 W13       30.05R FOG     WCI  22
JUNEAU         FOG       32  32 100 SW15      30.07R VSB 1/4 WCI  21
$$

LSZ147-162-181400-
LAKE SUPERIOR

STATION/POSITION TIME  TEMP    WIND        PRES    WAVE
                       AIR SEA DIR/SP/G            HT/PER
                 (UTC) (F)     (DEG/KT/KT) (MB)    (FT/S)
DEVILS ISLAND    1200   31     220/  9/ 11 1009.7F
PORT WING        1240   31     210/  9/ 12 1009.5F
SAXON HARBOR     1230   35     190/ 10/ 17 1009.1F
$$

LMZ867-665-643>646-181400-
LAKE MICHIGAN

STATION/POSITION TIME  TEMP    WIND        PRES    WAVE
                       AIR SEA DIR/SP/G            HT/PER
                 (UTC) (F)     (DEG/KT/KT) (MB)    (FT/S)
NORTHPORT PIER   1240   32      CALM  /  6 1014.2S
SISTER BAY       1250   31     210/  8/ 10   N/A
ALGOMA LAKESHORE 1253          260/ 10/ 12   N/A
KEWAUNEE LAKESHO 1248   32     240/  5/  8 1015.6R
SHEBOYGAN LAKESH 1200   34     250/ 13/ 15 1017.0R
PORT WASHINGTON  1230   36     250/  7/ 10 1018.3R
MILWAUKEE LAKESH 1250   36     260/  8/ 10   N/A
KENOSHA   LAKESH 1200   36     240/  6/  9 1018.3
$$

TC  - TEMPERATURE IN CELSIUS
VSB - VISIBILITY IN STATUTE MILES
WCI - WIND CHILL INDEX
HX  - HEAT INDEX




USA.gov is the U.S. government's official web portal to all federal, state and local government web resources and services.